Location: Banff
(51.1667°N, 115.5667°W)
Time: 11:37:26
(UTC+00:00)

Courier 1B Rocket - Pass Details

Date: 29 November 2020
Orbit: 920 x 1202 km, 28.2° (Epoch: 17 January)

Event Time Altitude Azimuth Distance (km) Brightness Sun altitude
Rises 14:39:26 0° 226° (SW) 4,089 8.1 -6.6°
Reaches altitude 10° 14:44:56 10° 195° (SSW) 3,099 7.8 -5.8°
Maximum altitude 14:47:03 11° 179° (S) 2,986 8.0 -5.5°
Drops below altitude 10° 14:49:09 10° 162° (SSE) 3,064 8.4 -5.3°
Sets 14:54:29 0° 131° (SE) 3,963 10.3 -4.5°
